Flag for U.S.A. Weather past 2 weeks in Clovis, New Mexico, U.S.A.

Now
49 °F

Clear.


Feels Like: 44 °F
Forecast: 44 / 80 °F
Wind: 12 mph from Northwest

Location: Cannon Air Force Base / Clovis

Current Time: Mar 28, 2015 at 6:19:17 AM

Latest Report: Mar 28, 2015 at 5:58 AM


Visibility: 10 mi

Pressure: 29.94 "Hg

Humidity: 46%

Dew point: 29 °F

Location of ClovisLocation

Historic Weather in Clovis — Graph

°F

Clovis temperature yesterday

Maximum temperature yesterday: 75 °F (at 4:58 PM)
Minimum temperature yesterday: 39 °F (at 5:58 AM)
Average temperature yesterday: 57 °F

Past Weeks' High & Low Weather Summary

 TemperatureHumidityPressure
High77 °F (Mar 22, 3:58 PM)99% (Mar 22, 12:58 AM)30.35 "Hg (Mar 22, 12:58 AM)
Low30 °F (Mar 15, 6:58 AM)9% (Mar 24, 1:58 PM)29.73 "Hg (Mar 25, 4:58 AM)
Average53 °F53%30.05 "Hg
* Reported Mar 13 4:58 AM — Mar 28 4:58 AM, Clovis, Weather by CustomWeather, © 2015

Note: Actual official high and low records may vary slightly from our data, if they occured in-between our weather recording intervals... More about our weather records

Advertising

Clovis weather history for previous 24 hours

 ConditionsComfort  
Time TempWeatherWind HumidityBarometerVisibility
4:58 AM
Sat, Mar 28
50 °FClear.13 mph47%29.93 "Hg10 mi
3:58 AM50 °FClear.6 mph45%29.93 "Hg10 mi
2:58 AM53 °FClear.8 mph39%29.93 "Hg10 mi
1:58 AM50 °FClear.7 mph46%29.96 "Hg10 mi
12:58 AM49 °FClear.3 mph51%29.98 "Hg10 mi
11:58 PM
Fri, Mar 27
50 °FClear.5 mphN/A30.01 "Hg10 mi
10:58 PM50 °FClear.6 mph48%30.02 "Hg10 mi
8:58 PM55 °FClear.7 mph40%30.03 "Hg10 mi
6:58 PM68 °FSunny.3 mph24%30.01 "Hg10 mi
5:58 PM74 °FSunny.7 mph17%29.99 "Hg10 mi
4:58 PM75 °FSunny.2 mph16%29.99 "Hg10 mi
3:58 PM73 °FSunny.2 mph16%30.01 "Hg10 mi
2:58 PM74 °FSunny.5 mph16%30.04 "Hg10 mi
1:58 PM72 °FSunny.5 mph18%30.13 "Hg10 mi
12:58 PM71 °FSunny.9 mph18%30.09 "Hg10 mi
11:58 AM67 °FSunny.7 mph20%30.11 "Hg10 mi
10:58 AM63 °FSunny.No wind24%30.14 "Hg10 mi
9:58 AM58 °FSunny.2 mph29%30.14 "Hg10 mi
8:58 AM50 °FSunny.8 mph43%30.15 "Hg10 mi
7:58 AM42 °FSunny.10 mph56%30.15 "Hg10 mi
6:58 AM40 °FClear.7 mph55%30.12 "Hg10 mi
Weather by CustomWeather, © 2015

See weather overviewHow to use our weather pages